Fort Myers Airport, FL

8:02 AM EDT on October 15, 2019 (GMT -0400)
Southwest Florida International

Weather History for KRSW - September, 2019

Change the Weather History Date:

Thursday, September 19, 2019

  Actual Average Record
Temperature  
Mean Temperature 80 °F -  
Max Temperature 88 °F 89 °F 95 °F (1942)
Min Temperature 73 °F 73 °F 68 °F (1981)
Cooling Degree Days 15    
Growing Degree Days 30 (Base 50)    
Moisture  
Dew Point 68 °F    
Average Humidity 69    
Maximum Humidity 87    
Minimum Humidity 49    
Precipitation  
Precipitation 0.00 in - - ()
Sea Level Pressure  
Sea Level Pressure 29.96 in    
Wind  
Wind Speed 10 mph ()    
Max Wind Speed 24 mph    
Max Gust Speed 30 mph    
Visibility 10.0 miles    
Events      
Averages and records for this station are not official NWS values.
T = Trace of Precipitation, MM = Missing Value Source: Averaged Metar Reports

Daily Weather History Graph

Daily Weather History Graph

Search for Another Location

Airport or City:

Astronomy

Sep. 19, 2019 Rise Set
Actual Time 7:14 AM EDT 7:27 PM EDT
Civil Twilight 6:51 AM EDT 7:50 PM EDT
Nautical Twilight 6:24 AM EDT 8:17 PM EDT
Astronomical Twilight 5:56 AM EDT 8:44 PM EDT
Moon 11:03 PM EDT (9/19) 11:50 AM EDT (9/19)
Length of Visible Light 12h 59m
Length of Day
12h 12m
Waning Gibbous, 74% of the Moon is Illuminated
Sep 19
Waning Gibbous
Sep 21
Last Quarter
Sep 28
New
Oct 5
First Quarter
Oct 13
Full

Hourly Weather History & Observations

Time (EDT) Temp. Heat Index Dew Point Humidity Pressure Visibility Wind Dir Wind Speed Gust Speed Precip Events Conditions
12:53 AM 78.1 °F - 73.0 °F 84% 29.96 in 10.0 mi NE 8.1 mph - N/A   Clear
1:53 AM 77.0 °F - 71.1 °F 82% 29.96 in 10.0 mi NE 8.1 mph - N/A   Clear
3:53 AM 75.0 °F - 71.1 °F 87% 29.94 in 10.0 mi NE 9.2 mph - N/A   Clear
4:53 AM 75.0 °F - 71.1 °F 87% 29.93 in 10.0 mi NE 9.2 mph - N/A   Scattered Clouds
5:53 AM 75.0 °F - 70.0 °F 84% 29.94 in 10.0 mi NE 10.4 mph - N/A   Clear
7:53 AM 73.9 °F - 68.0 °F 82% 29.96 in 10.0 mi NE 6.9 mph - N/A   Clear
8:53 AM 77.0 °F - 68.0 °F 74% 29.98 in 10.0 mi ENE 10.4 mph - N/A   Clear
9:53 AM 81.0 °F 83.3 °F 66.9 °F 62% 29.98 in 10.0 mi ENE 10.4 mph - N/A   Clear
10:53 AM 82.9 °F 85.0 °F 66.0 °F 56% 29.99 in 10.0 mi NE 17.3 mph - N/A   Clear
11:53 AM 86.0 °F 88.2 °F 66.0 °F 51% 29.98 in 10.0 mi ENE 17.3 mph - N/A   Partly Cloudy
12:53 PM 86.0 °F 88.2 °F 66.0 °F 51% 29.97 in 10.0 mi ENE 15.0 mph 23.0 mph N/A   Mostly Cloudy
1:53 PM 87.1 °F 89.2 °F 66.0 °F 49% 29.95 in 10.0 mi NE 15.0 mph 23.0 mph N/A   Clear
2:53 PM 80.1 °F 83.2 °F 70.0 °F 71% 29.95 in 10.0 mi ESE 15.0 mph - 0.00 in   Overcast
3:53 PM 79.0 °F - 69.1 °F 72% 29.94 in 10.0 mi East 8.1 mph - 0.00 in   Overcast
4:53 PM 82.9 °F 86.5 °F 69.1 °F 63% 29.92 in 10.0 mi East 9.2 mph - 0.00 in   Mostly Cloudy
5:53 PM 84.9 °F 87.1 °F 66.0 °F 53% 29.93 in 10.0 mi ENE 17.3 mph - 0.00 in   Clear
6:53 PM 82.0 °F 84.5 °F 66.9 °F 60% 29.94 in 10.0 mi ENE 24.2 mph 29.9 mph N/A   Mostly Cloudy
7:53 PM 79.0 °F - 66.0 °F 64% 29.96 in 10.0 mi ENE 15.0 mph - N/A   Mostly Cloudy
8:53 PM 77.0 °F - 66.0 °F 69% 29.98 in 10.0 mi ENE 12.7 mph - N/A   Overcast
9:53 PM 75.9 °F - 66.0 °F 71% 30.00 in 10.0 mi NE 10.4 mph - N/A   Clear
10:53 PM 73.9 °F - 66.0 °F 76% 30.01 in 10.0 mi NE 9.2 mph - N/A   Clear
11:53 PM 73.0 °F - 66.0 °F 79% 30.00 in 10.0 mi NE 11.5 mph - N/A   Partly Cloudy